Hlavní strana
METAR-TAF:

METAR-TAF

Letiště :

Hemavan, Švédsko

zeměpisná šířka: 65-48-22N, zeměpisná délka: 015-04-58E, výška: 458 m

Aktuální stav počasí

Zpráva byla vytvořena před 39 minutami, v 18:20 UTC
Severozápadní vítr 4 kt, proměnlivý mezi západním a severním
Teplota 3°C
Vlhkost vzduchu 87%
Tlak 1015 hPa
Viditelnost 10 km a více
slabé mrholení

METAR: ESUT 281820Z AUTO 32004KT 260V010 9999 -DZ BKN014/// OVC024/// 03/01 Q1015

Čas: 19:59 (18:59 UTC)


TAF: chybějící

Stav a předpovědi počasí z více než 4 000 letišť (zprávy METAR a TAF).

Červené a žluté tečky na mapě představují dostupné meteorologické stanice.

Když kurzor umístíte na tečku, zobrazí se název stanice.

Pak kliknutím zobrazíte stav a předpověď počasí.

Chcete-li změnit mapu, kliknutím na zelené tlačítko se znaménkem +mapu přiblížíte, kliknutím na zelené tlačítko se znaménkem – mapu oddálíte a kliknutím na zelené šipky přejdete na sousední mapy.


METAR-TAF: